Time,TemperatureF,DewpointF,PressureIn,WindDirection,WindDirectionDegrees,WindSpeedMPH,WindSpeedGustMPH,Humidity,HourlyPrecipIn,Conditions,Clouds,dailyrainin,SolarRadiationWatts/m^2,SoftwareType,DateUTC
2013-05-01 00:11:00,48.7,31.0,29.85,SSW,198,0.0,0.0,50,0.00,,,0.00,0,weatherlink.com 1.10,2013-05-01 04:11:00,
2013-05-01 00:26:00,47.8,30.0,29.85,SSW,198,0.0,0.0,51,0.00,,,0.00,0,weatherlink.com 1.10,2013-05-01 04:26:00,
2013-05-01 00:42:00,48.2,29.0,29.86,SSW,198,0.0,0.0,48,0.00,,,0.00,0,weatherlink.com 1.10,2013-05-01 04:42:00,
2013-05-01 00:56:00,48.2,29.0,29.86,SSW,198,0.0,0.0,47,0.00,,,0.00,0,weatherlink.com 1.10,2013-05-01 04:56:00,
2013-05-01 01:11:00,47.9,29.0,29.86,SSW,198,0.0,0.0,48,0.00,,,0.00,0,weatherlink.com 1.10,2013-05-01 05:11:00,
2013-05-01 01:26:00,48.0,29.0,29.86,SSW,198,0.0,0.0,49,0.00,,,0.00,0,weatherlink.com 1.10,2013-05-01 05:26:00,
2013-05-01 01:41:00,47.8,29.0,29.86,SSW,198,0.0,0.0,49,0.00,,,0.00,0,weatherlink.com 1.10,2013-05-01 05:41:00,
2013-05-01 01:56:00,47.9,28.0,29.86,SSW,198,0.0,0.0,47,0.00,,,0.00,0,weatherlink.com 1.10,2013-05-01 05:56:00,
2013-05-01 02:11:00,48.0,28.0,29.86,SSW,198,0.0,0.0,47,0.00,,,0.00,0,weatherlink.com 1.10,2013-05-01 06:11:00,
2013-05-01 02:26:00,47.3,28.0,29.86,SSW,198,0.0,0.0,48,0.00,,,0.00,0,weatherlink.com 1.10,2013-05-01 06:26:00,
2013-05-01 02:41:00,47.4,28.0,29.86,SSW,198,0.0,0.0,48,0.00,,,0.00,0,weatherlink.com 1.10,2013-05-01 06:41:00,
2013-05-01 02:56:00,48.0,26.0,29.86,SSW,198,0.0,0.0,43,0.00,,,0.00,0,weatherlink.com 1.10,2013-05-01 06:56:00,
2013-05-01 03:11:00,47.3,28.0,29.87,SSW,198,0.0,0.0,47,0.00,,,0.00,0,weatherlink.com 1.10,2013-05-01 07:11:00,
2013-05-01 03:26:00,46.1,30.0,29.87,SSW,198,0.0,0.0,53,0.00,,,0.00,0,weatherlink.com 1.10,2013-05-01 07:26:00,
2013-05-01 03:41:00,46.3,30.0,29.88,SSW,198,0.0,0.0,53,0.00,,,0.00,0,weatherlink.com 1.10,2013-05-01 07:41:00,
2013-05-01 03:56:00,46.7,30.0,29.88,SSW,198,0.0,0.0,52,0.00,,,0.00,0,weatherlink.com 1.10,2013-05-01 07:56:00,
2013-05-01 04:12:00,45.5,30.0,29.88,SSW,198,0.0,0.0,56,0.00,,,0.00,0,weatherlink.com 1.10,2013-05-01 08:12:00,
2013-05-01 04:27:00,45.7,30.0,29.89,SSW,198,0.0,0.0,54,0.00,,,0.00,0,weatherlink.com 1.10,2013-05-01 08:27:00,
2013-05-01 04:42:00,45.8,30.0,29.88,SSW,198,0.0,0.0,54,0.00,,,0.00,0,weatherlink.com 1.10,2013-05-01 08:42:00,
2013-05-01 04:57:00,46.1,30.0,29.89,SSW,198,0.0,0.0,53,0.00,,,0.00,0,weatherlink.com 1.10,2013-05-01 08:57:00,
2013-05-01 05:12:00,46.2,29.0,29.89,SSW,198,0.0,0.0,51,0.00,,,0.00,0,weatherlink.com 1.10,2013-05-01 09:12:00,
2013-05-01 05:27:00,46.4,27.0,29.89,SSW,198,0.0,0.0,48,0.00,,,0.00,0,weatherlink.com 1.10,2013-05-01 09:27:00,
2013-05-01 05:42:00,46.1,27.0,29.89,SSW,198,0.0,0.0,47,0.00,,,0.00,0,weatherlink.com 1.10,2013-05-01 09:42:00,
2013-05-01 05:57:00,45.7,26.0,29.90,SSW,198,0.0,1.0,46,0.00,,,0.00,7,weatherlink.com 1.10,2013-05-01 09:57:00,
2013-05-01 06:12:00,46.8,25.0,29.91,ENE,57,0.0,1.0,43,0.00,,,0.00,21,weatherlink.com 1.10,2013-05-01 10:12:00,
2013-05-01 06:27:00,47.1,25.0,29.91,ENE,57,0.0,1.0,42,0.00,,,0.00,32,weatherlink.com 1.10,2013-05-01 10:27:00,
2013-05-01 06:42:00,47.8,26.0,29.92,ENE,67,0.0,1.0,42,0.00,,,0.00,53,weatherlink.com 1.10,2013-05-01 10:42:00,
2013-05-01 06:57:00,47.9,27.0,29.93,ENE,75,0.0,3.0,45,0.00,,,0.00,72,weatherlink.com 1.10,2013-05-01 10:57:00,
2013-05-01 07:12:00,49.0,28.0,29.93,ENE,67,0.0,2.0,45,0.00,,,0.00,128,weatherlink.com 1.10,2013-05-01 11:12:00,
2013-05-01 07:27:00,50.6,30.0,29.93,ENE,78,0.0,2.0,45,0.00,,,0.00,236,weatherlink.com 1.10,2013-05-01 11:27:00,
2013-05-01 07:42:00,51.6,32.0,29.93,East,96,0.0,3.0,47,0.00,,,0.00,283,weatherlink.com 1.10,2013-05-01 11:42:00,
2013-05-01 07:57:00,52.8,28.0,29.94,East,83,1.0,5.0,39,0.00,,,0.00,334,weatherlink.com 1.10,2013-05-01 11:57:00,
2013-05-01 08:12:00,56.2,30.0,29.94,North,355,1.0,4.0,37,0.00,,,0.00,385,weatherlink.com 1.10,2013-05-01 12:12:00,
2013-05-01 08:27:00,56.1,30.0,29.95,East,92,0.0,5.0,37,0.00,,,0.00,432,weatherlink.com 1.10,2013-05-01 12:27:00,
2013-05-01 08:42:00,59.6,31.0,29.95,NNE,28,0.0,3.0,34,0.00,,,0.00,455,weatherlink.com 1.10,2013-05-01 12:42:00,
2013-05-01 08:57:00,61.9,31.0,29.95,East,98,0.0,5.0,31,0.00,,,0.00,494,weatherlink.com 1.10,2013-05-01 12:57:00,
2013-05-01 09:12:00,61.2,29.0,29.95,NE,42,1.0,4.0,30,0.00,,,0.00,575,weatherlink.com 1.10,2013-05-01 13:12:00,
2013-05-01 09:27:00,62.3,31.0,29.95,NE,53,3.0,3.0,31,0.00,,,0.00,621,weatherlink.com 1.10,2013-05-01 13:27:00,
2013-05-01 09:42:00,60.8,31.0,29.96,ENE,71,1.0,5.0,33,0.00,,,0.00,661,weatherlink.com 1.10,2013-05-01 13:42:00,
2013-05-01 09:57:00,60.7,29.0,29.96,SSE,150,3.0,6.0,30,0.00,,,0.00,700,weatherlink.com 1.10,2013-05-01 13:57:00,
2013-05-01 10:12:00,62.3,29.0,29.96,South,176,1.0,5.0,29,0.00,,,0.00,740,weatherlink.com 1.10,2013-05-01 14:12:00,
2013-05-01 10:28:00,63.7,30.0,29.96,East,88,6.0,7.0,28,0.00,,,0.00,775,weatherlink.com 1.10,2013-05-01 14:28:00,
2013-05-01 10:43:00,62.3,27.0,29.96,East,101,5.0,9.0,26,0.00,,,0.00,803,weatherlink.com 1.10,2013-05-01 14:43:00,
2013-05-01 10:58:00,63.7,27.0,29.96,East,101,3.0,10.0,25,0.00,,,0.00,837,weatherlink.com 1.10,2013-05-01 14:58:00,
2013-05-01 11:13:00,64.9,30.0,29.96,South,182,4.0,13.0,27,0.00,,,0.00,861,weatherlink.com 1.10,2013-05-01 15:13:00,
2013-05-01 11:28:00,64.9,30.0,29.95,South,172,1.0,8.0,27,0.00,,,0.00,881,weatherlink.com 1.10,2013-05-01 15:28:00,
2013-05-01 11:43:00,64.5,33.0,29.95,ENE,61,2.0,8.0,31,0.00,,,0.00,900,weatherlink.com 1.10,2013-05-01 15:43:00,
2013-05-01 11:58:00,64.9,34.0,29.95,East,80,2.0,10.0,32,0.00,,,0.00,918,weatherlink.com 1.10,2013-05-01 15:58:00,
2013-05-01 12:13:00,64.0,38.0,29.96,South,182,5.0,8.0,38,0.00,,,0.00,928,weatherlink.com 1.10,2013-05-01 16:13:00,
2013-05-01 12:28:00,63.7,40.0,29.95,South,179,2.0,10.0,42,0.00,,,0.00,937,weatherlink.com 1.10,2013-05-01 16:28:00,
2013-05-01 12:43:00,63.7,40.0,29.95,East,80,3.0,8.0,42,0.00,,,0.00,946,weatherlink.com 1.10,2013-05-01 16:43:00,
2013-05-01 12:58:00,63.7,41.0,29.95,East,82,2.0,6.0,43,0.00,,,0.00,949,weatherlink.com 1.10,2013-05-01 16:58:00,
2013-05-01 13:13:00,64.8,41.0,29.95,NE,49,6.0,10.0,42,0.00,,,0.00,682,weatherlink.com 1.10,2013-05-01 17:13:00,
2013-05-01 13:28:00,64.3,41.0,29.95,ENE,65,5.0,8.0,42,0.00,,,0.00,545,weatherlink.com 1.10,2013-05-01 17:28:00,
2013-05-01 13:43:00,64.1,39.0,29.95,SSE,160,6.0,9.0,40,0.00,,,0.00,431,weatherlink.com 1.10,2013-05-01 17:43:00,
2013-05-01 13:58:00,63.0,39.0,29.95,ENE,71,2.0,8.0,42,0.00,,,0.00,445,weatherlink.com 1.10,2013-05-01 17:58:00,
2013-05-01 14:13:00,64.5,40.0,29.95,SSW,208,5.0,9.0,40,0.00,,,0.00,582,weatherlink.com 1.10,2013-05-01 18:13:00,
2013-05-01 14:28:00,64.0,39.0,29.95,ENE,75,7.0,16.0,40,0.00,,,0.00,468,weatherlink.com 1.10,2013-05-01 18:28:00,
2013-05-01 14:43:00,63.3,38.0,29.95,NE,53,6.0,14.0,39,0.00,,,0.00,134,weatherlink.com 1.10,2013-05-01 18:43:00,
2013-05-01 14:58:00,64.0,38.0,29.94,SSE,160,3.0,12.0,39,0.00,,,0.00,146,weatherlink.com 1.10,2013-05-01 18:58:00,
2013-05-01 15:13:00,63.8,38.0,29.94,South,171,1.0,8.0,39,0.00,,,0.00,654,weatherlink.com 1.10,2013-05-01 19:13:00,
2013-05-01 15:28:00,64.2,38.0,29.94,ENE,73,4.0,10.0,38,0.00,,,0.00,128,weatherlink.com 1.10,2013-05-01 19:28:00,
2013-05-01 15:43:00,63.9,40.0,29.94,ESE,107,1.0,8.0,41,0.00,,,0.00,65,weatherlink.com 1.10,2013-05-01 19:43:00,
2013-05-01 15:58:00,63.8,41.0,29.94,ESE,105,5.0,8.0,43,0.00,,,0.00,288,weatherlink.com 1.10,2013-05-01 19:58:00,
2013-05-01 16:13:00,63.6,41.0,29.93,SSE,163,1.0,8.0,44,0.00,,,0.00,255,weatherlink.com 1.10,2013-05-01 20:13:00,
2013-05-01 16:28:00,63.8,42.0,29.93,SSE,163,1.0,7.0,45,0.00,,,0.00,111,weatherlink.com 1.10,2013-05-01 20:28:00,
2013-05-01 16:43:00,63.3,42.0,29.93,South,182,3.0,5.0,46,0.00,,,0.00,160,weatherlink.com 1.10,2013-05-01 20:43:00,
2013-05-01 16:58:00,63.1,41.0,29.94,NNE,28,1.0,7.0,45,0.00,,,0.00,72,weatherlink.com 1.10,2013-05-01 20:58:00,
2013-05-01 17:13:00,63.0,43.0,29.94,South,175,0.0,5.0,48,0.00,,,0.00,65,weatherlink.com 1.10,2013-05-01 21:13:00,
2013-05-01 17:28:00,62.5,43.0,29.94,SSE,168,0.0,7.0,49,0.00,,,0.00,42,weatherlink.com 1.10,2013-05-01 21:28:00,
2013-05-01 17:43:00,62.7,44.0,29.94,SSE,161,2.0,5.0,50,0.00,,,0.00,70,weatherlink.com 1.10,2013-05-01 21:43:00,
2013-05-01 17:58:00,62.4,43.0,29.95,South,170,1.0,5.0,50,0.00,,,0.00,49,weatherlink.com 1.10,2013-05-01 21:58:00,
2013-05-01 18:13:00,62.1,44.0,29.94,ENE,63,0.0,4.0,51,0.00,,,0.00,46,weatherlink.com 1.10,2013-05-01 22:13:00,
2013-05-01 18:28:00,61.8,44.0,29.95,South,174,0.0,5.0,53,0.00,,,0.00,44,weatherlink.com 1.10,2013-05-01 22:28:00,
2013-05-01 18:43:00,61.3,44.0,29.95,South,184,2.0,4.0,53,0.00,,,0.00,35,weatherlink.com 1.10,2013-05-01 22:43:00,
2013-05-01 18:58:00,60.9,44.0,29.96,SSE,167,1.0,3.0,55,0.00,,,0.00,21,weatherlink.com 1.10,2013-05-01 22:58:00,
2013-05-01 19:13:00,59.8,44.0,29.96,South,187,0.0,5.0,56,0.00,,,0.00,16,weatherlink.com 1.10,2013-05-01 23:13:00,
2013-05-01 19:28:00,58.8,44.0,29.96,South,188,0.0,4.0,58,0.00,,,0.00,11,weatherlink.com 1.10,2013-05-01 23:28:00,
2013-05-01 19:44:00,58.1,45.0,29.96,South,188,0.0,2.0,61,0.00,,,0.00,5,weatherlink.com 1.10,2013-05-01 23:44:00,
2013-05-01 19:59:00,57.4,44.0,29.96,South,188,0.0,2.0,62,0.00,,,0.00,0,weatherlink.com 1.10,2013-05-01 23:59:00,
2013-05-01 20:14:00,56.7,45.0,29.97,South,188,0.0,0.0,64,0.00,,,0.00,0,weatherlink.com 1.10,2013-05-02 00:14:00,
2013-05-01 20:29:00,55.8,44.0,29.97,SE,142,0.0,1.0,65,0.00,,,0.00,0,weatherlink.com 1.10,2013-05-02 00:29:00,
2013-05-01 20:44:00,54.9,44.0,29.98,SE,136,0.0,1.0,67,0.00,,,0.00,0,weatherlink.com 1.10,2013-05-02 00:44:00,
2013-05-01 20:59:00,54.2,44.0,29.98,SSW,212,0.0,3.0,68,0.00,,,0.00,0,weatherlink.com 1.10,2013-05-02 00:59:00,
2013-05-01 21:14:00,53.7,44.0,29.98,SE,146,0.0,1.0,69,0.00,,,0.00,0,weatherlink.com 1.10,2013-05-02 01:14:00,
2013-05-01 21:29:00,53.3,44.0,29.99,SE,146,0.0,1.0,71,0.00,,,0.00,0,weatherlink.com 1.10,2013-05-02 01:29:00,
2013-05-01 21:44:00,52.9,44.0,29.99,SE,146,0.0,0.0,72,0.00,,,0.00,0,weatherlink.com 1.10,2013-05-02 01:44:00,
2013-05-01 21:59:00,52.2,44.0,29.99,SE,146,0.0,0.0,73,0.00,,,0.00,0,weatherlink.com 1.10,2013-05-02 01:59:00,
2013-05-01 22:14:00,51.5,44.0,30.00,SE,146,0.0,0.0,76,0.00,,,0.00,0,weatherlink.com 1.10,2013-05-02 02:14:00,
2013-05-01 22:29:00,51.1,44.0,30.00,SE,146,0.0,0.0,77,0.00,,,0.00,0,weatherlink.com 1.10,2013-05-02 02:29:00,
2013-05-01 22:44:00,50.9,44.0,29.99,SE,146,0.0,0.0,78,0.00,,,0.00,0,weatherlink.com 1.10,2013-05-02 02:44:00,
2013-05-01 22:59:00,50.1,44.0,29.99,SE,146,0.0,0.0,79,0.00,,,0.00,0,weatherlink.com 1.10,2013-05-02 02:59:00,
2013-05-01 23:14:00,50.1,44.0,29.99,SE,146,0.0,0.0,79,0.00,,,0.00,0,weatherlink.com 1.10,2013-05-02 03:14:00,
2013-05-01 23:29:00,50.0,44.0,29.99,SE,146,0.0,0.0,80,0.00,,,0.00,0,weatherlink.com 1.10,2013-05-02 03:29:00,
2013-05-01 23:44:00,50.0,43.0,29.99,SE,146,0.0,0.0,78,0.00,,,0.00,0,weatherlink.com 1.10,2013-05-02 03:44:00,
2013-05-01 23:59:00,49.8,44.0,29.99,SE,146,0.0,0.0,79,0.00,,,0.00,0,weatherlink.com 1.10,2013-05-02 03:59:00,